Regional Weather Roundup
Issued by NWS Lake Charles, LA

Home | Current Version | Previous Version | Text Only | Print | Product List | Glossary On
Versions: 1 2 3 4 5 6 7 8 9 10 11 12 13 14 15 16 17 18 19 20 21 22 23 24 25 26 27 28 29 30 31 32 33 34 35 36 37 38 39 40 41 42 43 44 45 46 47 48
000
ASUS44 KLCH 280210
RWRLCH
RWRLCH
REGIONAL WEATHER ROUNDUP
NATIONAL WEATHER SERVICE LAKE CHARLES LA
900 PM CDT WED MAY 27 2015

Note: "fair" indicates few or no clouds below 12,000 feet with no
significant weather and/or obstructions to visibility.


ACROSS SOUTHEAST TEXAS

CITY           SKY/WX    TMP DP  RH WIND       PRES   REMARKS
BEAUMONT       CLEAR     77  73  87 S8        30.06R
BEAUMONT CITY    N/A     77  73  90 SE3       30.07R
ORANGE         CLEAR     77  72  85 S3        30.09R
JASPER         MOCLDY    79  77  91 CALM      30.09R
$$

ACROSS CENTRAL LOUISIANA

CITY           SKY/WX    TMP DP  RH WIND       PRES   REMARKS
LEESVILLE      PTCLDY    75  73  92 SE5       30.07R
FULLERTON        N/A     77  72  84 CALM      30.05R
ALEXANDRIA INT CLEAR     74  71  91 CALM      30.06R
ESLER FIELD    CLEAR     72  70  93 CALM      30.07R
DERIDDER       MOCLDY    79  73  81 CALM      30.10R
OAKDALE        PTCLDY    74  72  93 CALM      30.08R
OPELOUSAS        N/A    N/A N/A N/A CALM      30.08R
$$

ACROSS SOUTHWEST AND SOUTH CENTRAL LOUISIANA

CITY           SKY/WX    TMP DP  RH WIND       PRES   REMARKS
SULPHUR        CLEAR     77  74  88 CALM      30.08S
LAKE CHARLES   CLEAR     76  72  87 SE5       30.08R
CHENNAULT INT  CLOUDY    77  72  83 S5        30.09R
CAMERON PHI    CLEAR     79  72  78 SE7       30.11R
DEQUINCY         N/A     77  77 100 SE6       30.08R
JENNINGS         N/A     76  72  85 CALM      30.07S
LAFAYETTE      CLEAR     75  71  87 CALM      30.08R
NEW IBERIA     PTCLDY    74  70  87 E6        30.09R
ABBEVILLE        N/A     73  70  92 CALM      30.09R
PATTERSON      MOCLDY    72  70  94 CALM      30.10R
SALT POINT       N/A     73  70  90 CALM      30.07R
$$

SELECTED SITES ACROSS THE REGION

CITY           SKY/WX    TMP DP  RH WIND       PRES   REMARKS
HOUSTON BUSH   PTCLDY    79  70  74 S5        30.04R
HOUSTON HOBBY  PTCLDY    78  71  79 S5        30.05R
GALVESTON      CLEAR     78  73  84 SE9       30.06R
COLLEGE STAT   CLOUDY    80  73  79 SE7       30.02R
CONROE         MOCLDY    76  71  85 SE5       30.04S
HUNTSVILLE     MOCLDY    80  71  74 SE3       30.04R
LUFKIN         MOCLDY    77  72  84 CALM      30.05R
SHREVEPORT     MOCLDY    78  72  81 SE6       30.05R
MONROE         PTCLDY    72  70  93 E3        30.09R
NATCHEZ MS     PTCLDY    72  68  88 CALM      30.10R
BATON ROUGE    MOCLDY    71  68  90 N3        30.10R
N.O. INTL ARPT MOCLDY    77  68  73 CALM      30.09R
SLIDELL        CLOUDY    75  71  87 N3        30.09S
$$

MARINE REPORTS

STATION/POSITION TIME  TEMP    WIND        PRES    VSBY  WAVE
                       AIR SEA DIR/SP/G                  HT/PER
                 (UTC) (F)     (DEG/KT/KT) (MB)    (MI)  (FT/S)
BUOY 30 S HIGH I 0150   78 80  120/ 10/ 12 1017.3R         3/ 6
SEA RIM ST PARK  0200   78     150/  5/  6 1018.5R
PORT ARTHUR      0100      77  160/  5/  7 1018.0R
SABINE PASS N    0100   78 78  160/  6/  9 1018.0R
TEXAS POINT      NOT AVBL
CALCASIEU PASS   0100   78 79  170/  6/  9   N/A
LK CHARLES BEACH 0100   79 76              1018.4R
MARSH ISLAND     0100   78     140/ 11/ 13   N/A           0
FRESH WATER LOCK 0100   76 80  110/  5/  6   N/A
AMERADA PASS     0100   76 76   70/  2/  3 1018.1R
$$



USA.gov is the U.S. government's official web portal to all federal, state and local government web resources and services.